ギャラッド彗星

436P/Garradd (2007)

English version
Home page
Updated on November 14, 2021

---------------------------------------------------------------------

・ プロフィール

符号 436P/2007 R4
発見日 2007年9月14日
発見光度 18.4等
発見者 G. J. Garradd (Siding Spring Survey)

・ 軌道要素

Epoch 2007 Sept. 17.0 TT = JDT 2454360.5                                        
T 2007 Sept. 27.28976 TT                                Rudenko                 
q   1.9213798            (2000.0)            P               Q                  
n   0.06970824     Peri.  282.87334     +0.92359449     -0.16636169             
a   5.8471822      Node    87.50148     +0.30169488     +0.87129326             
e   0.6714007      Incl.   20.22592     -0.23654475     +0.46170536             
P  14.1                                                                         
From 99 observations 2007 Aug. 12-2021 Oct. 26, mean residual 0".9.             

・ 光度変化

        m1 = 15.0 + 5 logΔ + 10.0 log r

---------------------------------------------------------------------

軌道要素はM.P.E.C. 2021-U108に掲載されたものです。
光度グラフはComet for Windowsで作成したものです。

---------------------------------------------------------------------

Copyright(C) Seiichi Yoshida (comet@aerith.net). All rights reserved.